Olathe New Century, KS

5:04 AM CDT on October 20, 2017 (GMT -0500)
New Century Aircenter

Weather History for KIXD - March, 2013

Change the Weather History Date:

Friday, March 22, 2013

  Actual Average Record
Temperature  
Mean Temperature 30 °F -  
Max Temperature 33 °F 55 °F 75 °F (2009)
Min Temperature 28 °F 33 °F 10 °F (2002)
Degree Days  
Heating Degree Days 34    
Moisture  
Dew Point 28 °F    
Average Humidity 89    
Maximum Humidity 93    
Minimum Humidity 82    
Precipitation  
Precipitation 0.00 in - - ()
Sea Level Pressure  
Sea Level Pressure 29.97 in    
Wind  
Wind Speed 8 mph (ENE)    
Max Wind Speed 10 mph    
Max Gust Speed -    
Visibility 4 miles    
Events      
Averages and records for this station are not official NWS values.
T = Trace of Precipitation, MM = Missing Value Source: NWS Daily Summary

Daily Weather History Graph

Daily Weather History Graph

Search for Another Location

Airport or City:

Trip Planner

Search our weather history database for the weather conditions in past years. The results will help you decide how hot, cold, wet, or windy it might be!

Date:

Astronomy

Mar. 22, 2013 Rise Set
Actual Time 7:19 AM CDT 7:33 PM CDT
Civil Twilight 6:52 AM CDT 8:00 PM CDT
Nautical Twilight 6:21 AM CDT 8:31 PM CDT
Astronomical Twilight 5:50 AM CDT 9:03 PM CDT
Moon 3:04 PM CDT (3/22) 4:17 AM CDT (3/22)
Length of Visible Light 13h 07m
Length of Day
12h 14m
Waxing Gibbous, 77% of the Moon is Illuminated
Mar 22
Waxing Gibbous
Mar 27
Full
Apr 2
Last Quarter
Apr 10
New
Apr 18
First Quarter

Hourly Weather History & Observations

Time (CDT) Temp. Windchill Dew Point Humidity Pressure Visibility Wind Dir Wind Speed Gust Speed Precip Events Conditions
12:33 AM 28.4 °F 19.7 °F 26.6 °F 93% 29.93 in 6.0 mi ENE 9.2 mph - N/A   Overcast
12:53 AM 28.9 °F 19.8 °F 26.1 °F 89% 29.96 in 6.0 mi ENE 10.4 mph - N/A   Overcast
1:51 AM 28.4 °F 20.4 °F 26.6 °F 93% 29.94 in 2.5 mi ENE 8.1 mph - N/A   Overcast
1:53 AM 28.9 °F 21.1 °F 27.0 °F 92% 29.97 in 2.5 mi ENE 8.1 mph - N/A   Overcast
2:12 AM 28.4 °F 21.2 °F 26.6 °F 93% 29.94 in 3.0 mi ENE 6.9 mph - N/A   Overcast
2:53 AM 28.9 °F 21.1 °F 27.0 °F 92% 29.97 in 3.0 mi ENE 8.1 mph - N/A   Overcast
3:11 AM 28.4 °F 22.2 °F 26.6 °F 93% 29.94 in 2.5 mi ENE 5.8 mph - N/A   Overcast
3:35 AM 28.4 °F 19.7 °F 26.6 °F 93% 29.94 in 3.0 mi ENE 9.2 mph - N/A   Overcast
3:53 AM 30.0 °F 22.4 °F 28.0 °F 92% 29.98 in 3.0 mi NE 8.1 mph - N/A   Overcast
4:53 AM 28.9 °F 21.1 °F 27.0 °F 92% 29.97 in 4.0 mi ENE 8.1 mph - N/A   Overcast
5:21 AM 30.2 °F 23.4 °F 26.6 °F 86% 29.94 in 2.5 mi ENE 6.9 mph - N/A   Overcast
5:53 AM 30.0 °F 24.1 °F 28.0 °F 92% 29.97 in 2.5 mi ENE 5.8 mph - N/A   Overcast
6:16 AM 30.2 °F 21.9 °F 28.4 °F 93% 29.94 in 3.0 mi ENE 9.2 mph - N/A   Overcast
6:49 AM 30.2 °F 22.6 °F 26.6 °F 86% 29.94 in 4.0 mi ENE 8.1 mph - N/A   Overcast
6:53 AM 30.0 °F 22.4 °F 27.0 °F 88% 29.98 in 5.0 mi ENE 8.1 mph - N/A   Overcast
7:53 AM 28.9 °F 21.9 °F 26.1 °F 89% 30.00 in 7.0 mi East 6.9 mph - N/A   Overcast
8:53 AM 28.9 °F 21.9 °F 26.1 °F 89% 29.99 in 5.0 mi ENE 6.9 mph - N/A   Overcast
9:53 AM 30.0 °F 22.4 °F 27.0 °F 88% 29.98 in 3.0 mi East 8.1 mph - N/A   Overcast
10:49 AM 30.2 °F 25.4 °F 28.4 °F 93% 29.96 in 2.0 mi East 4.6 mph - N/A   Overcast
10:53 AM 30.0 °F 24.1 °F 28.0 °F 92% 29.99 in 2.0 mi East 5.8 mph - N/A   Overcast
11:53 AM 30.9 °F 24.3 °F 28.0 °F 89% 29.99 in 2.0 mi East 6.9 mph - N/A   Overcast
12:53 PM 30.9 °F 27.5 °F 28.9 °F 92% 30.01 in 2.0 mi East 3.5 mph - N/A   Overcast
1:53 PM 32.0 °F 25.6 °F 30.0 °F 92% 29.97 in 2.0 mi NE 6.9 mph - N/A   Overcast
2:19 PM 33.8 °F 27.7 °F 30.2 °F 87% 29.95 in 3.0 mi ENE 6.9 mph - N/A   Overcast
2:53 PM 32.0 °F 25.6 °F 28.9 °F 88% 29.97 in 5.0 mi East 6.9 mph - N/A   Overcast
3:53 PM 33.1 °F 27.7 °F 30.0 °F 89% 29.97 in 4.0 mi East 5.8 mph - N/A   Overcast
4:53 PM 33.1 °F - 30.0 °F 89% 29.97 in 5.0 mi Calm Calm - N/A   Overcast
5:53 PM 33.1 °F 26.9 °F 30.0 °F 89% 29.98 in 4.0 mi NE 6.9 mph - N/A   Overcast
6:53 PM 33.1 °F 27.7 °F 28.9 °F 85% 29.99 in 4.0 mi NE 5.8 mph - N/A   Overcast
7:53 PM 33.1 °F 27.7 °F 28.9 °F 85% 29.99 in 5.0 mi NE 5.8 mph - N/A   Overcast
8:53 PM 32.0 °F 26.4 °F 28.9 °F 88% 29.99 in 5.0 mi NE 5.8 mph - N/A   Overcast
9:53 PM 32.0 °F 25.6 °F 28.0 °F 85% 30.01 in 6.0 mi NE 6.9 mph - N/A   Overcast
10:53 PM 32.0 °F 26.4 °F 27.0 °F 82% 30.03 in 7.0 mi NE 5.8 mph - N/A   Overcast
11:53 PM 32.0 °F 24.2 °F 28.0 °F 85% 30.02 in 7.0 mi ENE 9.2 mph - N/A   Overcast